Time,TemperatureF,DewpointF,PressureIn,WindDirection,WindDirectionDegrees,WindSpeedMPH,WindSpeedGustMPH,Humidity,HourlyPrecipIn,Conditions,Clouds,dailyrainin,SoftwareType,DateUTC
2013-01-11 00:02:00,13.0,9.0,29.72,NNW,330,12.0,16.0,82,0.00,,,0.00,,2013-01-11 07:02:00,
2013-01-11 00:12:00,13.0,9.0,29.72,NNW,330,12.0,16.0,82,0.00,,,0.00,,2013-01-11 07:12:00,
2013-01-11 00:22:00,13.0,9.0,29.72,NNW,331,12.0,15.0,82,0.00,,,0.00,,2013-01-11 07:22:00,
2013-01-11 00:32:00,13.0,9.0,29.72,NNW,341,13.0,17.0,82,0.00,,,0.00,,2013-01-11 07:32:00,
2013-01-11 00:42:00,13.0,9.0,29.71,North,352,13.0,17.0,82,0.00,,,0.00,,2013-01-11 07:42:00,
2013-01-11 00:52:00,13.0,9.0,29.71,North,352,13.0,17.0,82,0.00,,,0.00,,2013-01-11 07:52:00,
2013-01-11 01:02:00,13.0,9.0,29.70,North,355,12.0,18.0,82,0.00,,,0.00,,2013-01-11 08:02:00,
2013-01-11 01:12:00,13.0,9.0,29.70,North,9,14.0,20.0,82,0.00,,,0.00,,2013-01-11 08:12:00,
2013-01-11 01:22:00,13.0,9.0,29.70,North,9,14.0,20.0,82,0.00,,,0.00,,2013-01-11 08:22:00,
2013-01-11 01:32:00,13.0,9.0,29.70,North,9,17.0,23.0,82,0.00,,,0.00,,2013-01-11 08:32:00,
2013-01-11 01:42:00,13.0,9.0,29.70,North,9,17.0,23.0,82,0.00,,,0.00,,2013-01-11 08:42:00,
2013-01-11 01:52:00,13.0,9.0,29.69,North,8,19.0,26.0,82,0.00,,,0.00,,2013-01-11 08:52:00,
2013-01-11 02:02:00,13.0,9.0,29.69,North,355,20.0,28.0,83,0.00,,,0.00,,2013-01-11 09:02:00,
2013-01-11 02:12:00,13.0,9.0,29.69,North,355,20.0,28.0,83,0.00,,,0.00,,2013-01-11 09:12:00,
2013-01-11 02:22:00,14.0,10.0,29.70,North,0,19.0,26.0,83,0.00,,,0.00,,2013-01-11 09:22:00,
2013-01-11 02:32:00,14.0,10.0,29.70,North,5,17.0,24.0,82,0.00,,,0.00,,2013-01-11 09:32:00,
2013-01-11 02:42:00,14.0,10.0,29.70,North,5,17.0,24.0,82,0.00,,,0.00,,2013-01-11 09:42:00,
2013-01-11 02:52:00,13.0,9.0,29.71,NNW,342,14.0,22.0,82,0.00,,,0.00,,2013-01-11 09:52:00,
2013-01-11 03:02:00,13.0,9.0,29.72,NW,322,9.0,17.0,82,0.00,,,0.00,,2013-01-11 10:02:00,
2013-01-11 03:12:00,13.0,9.0,29.72,NW,322,9.0,17.0,82,0.00,,,0.00,,2013-01-11 10:12:00,
2013-01-11 03:22:00,13.0,9.0,29.72,WNW,301,8.0,14.0,82,0.00,,,0.00,,2013-01-11 10:22:00,
2013-01-11 03:32:00,13.0,9.0,29.72,NW,304,8.0,13.0,82,0.00,,,0.00,,2013-01-11 10:32:00,
2013-01-11 03:42:00,13.0,9.0,29.72,NW,304,8.0,13.0,82,0.00,,,0.00,,2013-01-11 10:42:00,
2013-01-11 03:52:00,12.0,8.0,29.73,NNW,333,12.0,16.0,82,0.00,,,0.00,,2013-01-11 10:52:00,
2013-01-11 04:02:00,12.0,8.0,29.73,NNW,345,13.0,20.0,82,0.00,,,0.00,,2013-01-11 11:02:00,
2013-01-11 04:12:00,12.0,8.0,29.73,NNW,345,13.0,20.0,82,0.00,,,0.00,,2013-01-11 11:12:00,
2013-01-11 04:22:00,12.0,7.0,29.73,NNW,342,14.0,20.0,81,0.00,,,0.00,,2013-01-11 11:22:00,
2013-01-11 04:33:00,12.0,7.0,29.73,North,349,17.0,21.0,81,0.00,,,0.00,,2013-01-11 11:33:00,
2013-01-11 04:42:00,12.0,7.0,29.73,North,349,17.0,21.0,81,0.00,,,0.00,,2013-01-11 11:42:00,
2013-01-11 04:53:00,11.0,6.0,29.72,NNW,348,19.0,23.0,81,0.00,,,0.00,,2013-01-11 11:53:00,
2013-01-11 05:03:00,11.0,6.0,29.72,North,352,20.0,25.0,81,0.00,,,0.00,,2013-01-11 12:03:00,
2013-01-11 05:12:00,11.0,6.0,29.72,North,352,20.0,25.0,81,0.00,,,0.00,,2013-01-11 12:12:00,
2013-01-11 05:22:00,11.0,6.0,29.72,North,354,18.0,26.0,81,0.00,,,0.00,,2013-01-11 12:22:00,
2013-01-11 05:32:00,11.0,6.0,29.72,NNW,348,19.0,25.0,81,0.00,,,0.00,,2013-01-11 12:32:00,
2013-01-11 05:42:00,11.0,6.0,29.72,NNW,348,19.0,25.0,81,0.00,,,0.00,,2013-01-11 12:42:00,
2013-01-11 05:53:00,10.0,5.0,29.72,NNW,348,18.0,25.0,81,0.00,,,0.00,,2013-01-11 12:53:00,
2013-01-11 06:02:00,10.0,5.0,29.73,North,352,18.0,23.0,80,0.00,,,0.00,,2013-01-11 13:02:00,
2013-01-11 06:13:00,10.0,5.0,29.73,North,352,18.0,23.0,80,0.00,,,0.00,,2013-01-11 13:13:00,
2013-01-11 06:22:00,10.0,5.0,29.74,North,351,19.0,25.0,81,0.00,,,0.00,,2013-01-11 13:22:00,
2013-01-11 06:33:00,10.0,5.0,29.75,North,351,20.0,24.0,81,0.00,,,0.00,,2013-01-11 13:33:00,
2013-01-11 06:42:00,10.0,5.0,29.75,North,351,20.0,24.0,81,0.00,,,0.00,,2013-01-11 13:42:00,
2013-01-11 06:53:00,10.0,5.0,29.75,North,352,12.0,25.0,81,0.00,,,0.00,,2013-01-11 13:53:00,
2013-01-11 07:03:00,10.0,5.0,29.76,NNW,332,15.0,22.0,81,0.00,,,0.00,,2013-01-11 14:03:00,
2013-01-11 07:12:00,10.0,5.0,29.76,NNW,332,15.0,22.0,81,0.00,,,0.00,,2013-01-11 14:12:00,
2013-01-11 07:23:00,9.0,4.0,29.76,NNW,337,18.0,26.0,81,0.00,,,0.00,,2013-01-11 14:23:00,
2013-01-11 07:33:00,9.0,4.0,29.76,NNW,333,14.0,22.0,81,0.00,,,0.00,,2013-01-11 14:33:00,
2013-01-11 07:42:00,9.0,4.0,29.78,NNW,341,22.0,31.0,81,0.00,,,0.00,,2013-01-11 14:42:00,
2013-01-11 07:53:00,9.0,4.0,29.78,NNW,341,22.0,31.0,81,0.00,,,0.00,,2013-01-11 14:53:00,
2013-01-11 08:03:00,9.0,4.0,29.78,North,355,21.0,31.0,81,0.00,,,0.00,,2013-01-11 15:03:00,
2013-01-11 08:12:00,8.0,3.0,29.78,North,349,25.0,32.0,81,0.00,,,0.00,,2013-01-11 15:12:00,
2013-01-11 08:23:00,8.0,3.0,29.78,North,349,25.0,32.0,81,0.00,,,0.00,,2013-01-11 15:23:00,
2013-01-11 08:32:00,8.0,3.0,29.78,North,0,26.0,31.0,81,0.00,,,0.00,,2013-01-11 15:32:00,
2013-01-11 08:43:00,8.0,3.0,29.78,North,0,26.0,31.0,81,0.00,,,0.00,,2013-01-11 15:43:00,
2013-01-11 08:53:00,9.0,4.0,29.77,North,354,25.0,32.0,81,0.00,,,0.00,,2013-01-11 15:53:00,
2013-01-11 09:03:00,8.0,3.0,29.78,North,352,21.0,30.0,81,0.00,,,0.00,,2013-01-11 16:03:00,
2013-01-11 09:12:00,8.0,3.0,29.78,NNW,347,23.0,32.0,81,0.00,,,0.00,,2013-01-11 16:12:00,
2013-01-11 09:22:00,8.0,3.0,29.78,NNW,347,23.0,32.0,81,0.00,,,0.00,,2013-01-11 16:22:00,
2013-01-11 09:33:00,8.0,3.0,29.79,North,355,26.0,33.0,80,0.00,,,0.00,,2013-01-11 16:33:00,
2013-01-11 09:42:00,8.0,3.0,29.79,North,355,26.0,33.0,80,0.00,,,0.00,,2013-01-11 16:42:00,
2013-01-11 09:53:00,8.0,3.0,29.79,North,351,28.0,36.0,81,0.00,,,0.00,,2013-01-11 16:53:00,
2013-01-11 10:03:00,8.0,3.0,29.80,NNW,346,25.0,33.0,80,0.00,,,0.00,,2013-01-11 17:03:00,
2013-01-11 10:12:00,8.0,3.0,29.80,North,349,27.0,35.0,80,0.00,,,0.00,,2013-01-11 17:12:00,
2013-01-11 10:22:00,8.0,3.0,29.80,North,349,27.0,35.0,80,0.00,,,0.00,,2013-01-11 17:22:00,
2013-01-11 10:33:00,7.0,2.0,29.81,NNW,348,24.0,32.0,80,0.00,,,0.00,,2013-01-11 17:33:00,
2013-01-11 10:43:00,7.0,2.0,29.81,NNW,348,24.0,32.0,80,0.00,,,0.00,,2013-01-11 17:43:00,
2013-01-11 10:53:00,7.0,2.0,29.82,NNW,340,23.0,35.0,79,0.00,,,0.00,,2013-01-11 17:53:00,
2013-01-11 11:03:00,7.0,2.0,29.82,NNW,344,25.0,30.0,80,0.00,,,0.00,,2013-01-11 18:03:00,
2013-01-11 11:12:00,7.0,2.0,29.82,NNW,344,25.0,30.0,80,0.00,,,0.00,,2013-01-11 18:12:00,
2013-01-11 11:23:00,7.0,2.0,29.81,NNW,342,31.0,35.0,80,0.00,,,0.00,,2013-01-11 18:23:00,
2013-01-11 11:33:00,7.0,2.0,29.81,NNW,344,29.0,36.0,79,0.00,,,0.00,,2013-01-11 18:33:00,
2013-01-11 11:43:00,7.0,2.0,29.81,NNW,344,29.0,36.0,79,0.00,,,0.00,,2013-01-11 18:43:00,
2013-01-11 11:53:00,7.0,2.0,29.81,NNW,336,27.0,39.0,80,0.00,,,0.00,,2013-01-11 18:53:00,
2013-01-11 12:02:00,7.0,2.0,29.81,NNW,342,24.0,36.0,80,0.00,,,0.00,,2013-01-11 19:02:00,
2013-01-11 12:12:00,7.0,2.0,29.81,NNW,342,24.0,36.0,80,0.00,,,0.00,,2013-01-11 19:12:00,
2013-01-11 12:22:00,7.0,2.0,29.82,NNW,341,25.0,38.0,80,0.00,,,0.00,,2013-01-11 19:22:00,
2013-01-11 12:32:00,7.0,2.0,29.82,NNW,345,30.0,37.0,79,0.00,,,0.00,,2013-01-11 19:32:00,
2013-01-11 12:43:00,7.0,2.0,29.82,NNW,345,30.0,37.0,79,0.00,,,0.00,,2013-01-11 19:43:00,
2013-01-11 12:53:00,7.0,2.0,29.83,NNW,347,32.0,38.0,79,0.00,,,0.00,,2013-01-11 19:53:00,
2013-01-11 13:03:00,7.0,2.0,29.83,NNW,340,29.0,37.0,79,0.00,,,0.00,,2013-01-11 20:03:00,
2013-01-11 13:12:00,7.0,2.0,29.83,NNW,340,29.0,37.0,79,0.00,,,0.00,,2013-01-11 20:12:00,
2013-01-11 13:22:00,7.0,2.0,29.83,NNW,339,33.0,40.0,79,0.00,,,0.00,,2013-01-11 20:22:00,
2013-01-11 13:33:00,7.0,2.0,29.83,NNW,337,28.0,37.0,79,0.00,,,0.00,,2013-01-11 20:33:00,
2013-01-11 13:43:00,7.0,2.0,29.83,NNW,337,28.0,37.0,79,0.00,,,0.00,,2013-01-11 20:43:00,
2013-01-11 13:53:00,7.0,2.0,29.85,North,349,30.0,40.0,79,0.00,,,0.00,,2013-01-11 20:53:00,
2013-01-11 14:03:00,7.0,2.0,29.85,NNW,347,30.0,39.0,79,0.00,,,0.00,,2013-01-11 21:03:00,
2013-01-11 14:12:00,7.0,2.0,29.85,NNW,347,30.0,39.0,79,0.00,,,0.00,,2013-01-11 21:12:00,
2013-01-11 14:23:00,7.0,2.0,29.85,NNW,345,30.0,39.0,79,0.00,,,0.00,,2013-01-11 21:23:00,
2013-01-11 14:33:00,7.0,2.0,29.86,NNW,342,32.0,39.0,79,0.00,,,0.00,,2013-01-11 21:33:00,
2013-01-11 14:42:00,7.0,2.0,29.86,NNW,342,32.0,39.0,79,0.00,,,0.00,,2013-01-11 21:42:00,
2013-01-11 14:53:00,7.0,2.0,29.86,NNW,346,32.0,40.0,79,0.00,,,0.00,,2013-01-11 21:53:00,
2013-01-11 15:02:00,7.0,2.0,29.86,NNW,337,32.0,39.0,79,0.00,,,0.00,,2013-01-11 22:02:00,
2013-01-11 15:12:00,7.0,2.0,29.86,NNW,337,32.0,39.0,79,0.00,,,0.00,,2013-01-11 22:12:00,
2013-01-11 15:22:00,7.0,2.0,29.88,NNW,339,29.0,40.0,79,0.00,,,0.00,,2013-01-11 22:22:00,
2013-01-11 15:33:00,7.0,2.0,29.90,NNW,328,28.0,35.0,79,0.00,,,0.00,,2013-01-11 22:33:00,
2013-01-11 15:42:00,7.0,2.0,29.90,NNW,328,28.0,35.0,79,0.00,,,0.00,,2013-01-11 22:42:00,
2013-01-11 15:53:00,6.0,1.0,29.90,NW,321,27.0,37.0,78,0.00,,,0.00,,2013-01-11 22:53:00,
2013-01-11 16:02:00,6.0,0.0,29.92,NW,320,28.0,36.0,77,0.00,,,0.00,,2013-01-11 23:02:00,
2013-01-11 16:13:00,6.0,0.0,29.92,NW,320,28.0,36.0,77,0.00,,,0.00,,2013-01-11 23:13:00,
2013-01-11 16:22:00,6.0,0.0,29.93,NW,310,25.0,35.0,76,0.00,,,0.00,,2013-01-11 23:22:00,
2013-01-11 16:32:00,5.0,-1.0,29.93,NW,311,24.0,31.0,76,0.00,,,0.00,,2013-01-11 23:32:00,
2013-01-11 16:43:00,5.0,-1.0,29.93,NW,311,24.0,31.0,76,0.00,,,0.00,,2013-01-11 23:43:00,
2013-01-11 16:53:00,5.0,-1.0,29.93,WNW,301,24.0,31.0,75,0.00,,,0.00,,2013-01-11 23:53:00,
2013-01-11 17:02:00,5.0,-1.0,29.93,NW,312,23.0,33.0,75,0.00,,,0.00,,2013-01-12 00:02:00,
2013-01-11 17:12:00,5.0,-1.0,29.95,NW,310,20.0,32.0,75,0.00,,,0.00,,2013-01-12 00:12:00,
2013-01-11 17:23:00,5.0,-1.0,29.95,NW,310,20.0,32.0,75,0.00,,,0.00,,2013-01-12 00:23:00,
2013-01-11 17:32:00,5.0,-1.0,29.95,NW,306,20.0,26.0,75,0.00,,,0.00,,2013-01-12 00:32:00,
2013-01-11 17:42:00,5.0,-1.0,29.95,NW,306,20.0,26.0,75,0.00,,,0.00,,2013-01-12 00:42:00,
2013-01-11 17:53:00,5.0,-1.0,29.96,NW,308,22.0,28.0,75,0.00,,,0.00,,2013-01-12 00:53:00,
2013-01-11 18:02:00,5.0,-1.0,29.98,WNW,302,18.0,23.0,75,0.00,,,0.00,,2013-01-12 01:02:00,
2013-01-11 18:12:00,5.0,-1.0,29.98,WNW,302,18.0,23.0,75,0.00,,,0.00,,2013-01-12 01:12:00,
2013-01-11 18:22:00,4.0,-2.0,30.00,WNW,289,13.0,23.0,74,0.00,,,0.00,,2013-01-12 01:22:00,
2013-01-11 18:32:00,4.0,-2.0,30.00,WNW,292,14.0,20.0,75,0.00,,,0.00,,2013-01-12 01:32:00,
2013-01-11 18:42:00,4.0,-2.0,30.00,WNW,292,14.0,20.0,75,0.00,,,0.00,,2013-01-12 01:42:00,
2013-01-11 18:52:00,3.0,-3.0,30.01,WNW,288,16.0,24.0,75,0.00,,,0.00,,2013-01-12 01:52:00,
2013-01-11 19:02:00,3.0,-3.0,30.01,WNW,292,18.0,22.0,75,0.00,,,0.00,,2013-01-12 02:02:00,
2013-01-11 19:12:00,3.0,-3.0,30.01,WNW,292,18.0,22.0,75,0.00,,,0.00,,2013-01-12 02:12:00,
2013-01-11 19:22:00,3.0,-3.0,30.03,WNW,296,17.0,28.0,76,0.00,,,0.00,,2013-01-12 02:22:00,
2013-01-11 19:32:00,3.0,-3.0,30.02,WNW,291,16.0,25.0,76,0.00,,,0.00,,2013-01-12 02:32:00,
2013-01-11 19:42:00,3.0,-3.0,30.02,WNW,291,16.0,25.0,76,0.00,,,0.00,,2013-01-12 02:42:00,
2013-01-11 19:53:00,3.0,-3.0,30.03,WNW,286,14.0,22.0,76,0.00,,,0.00,,2013-01-12 02:53:00,
2013-01-11 20:02:00,3.0,-3.0,30.04,WNW,284,13.0,21.0,76,0.00,,,0.00,,2013-01-12 03:02:00,
2013-01-11 20:12:00,3.0,-3.0,30.04,WNW,284,13.0,21.0,76,0.00,,,0.00,,2013-01-12 03:12:00,
2013-01-11 20:22:00,3.0,-3.0,30.05,WNW,283,9.0,21.0,75,0.00,,,0.00,,2013-01-12 03:22:00,
2013-01-11 20:33:00,3.0,-3.0,30.06,WNW,286,7.0,16.0,75,0.00,,,0.00,,2013-01-12 03:33:00,
2013-01-11 20:43:00,3.0,-3.0,30.06,WNW,286,7.0,16.0,75,0.00,,,0.00,,2013-01-12 03:43:00,
2013-01-11 20:53:00,3.0,-3.0,30.06,West,272,9.0,14.0,74,0.00,,,0.00,,2013-01-12 03:53:00,
2013-01-11 21:02:00,3.0,-3.0,30.06,West,265,8.0,13.0,74,0.00,,,0.00,,2013-01-12 04:02:00,
2013-01-11 21:12:00,3.0,-3.0,30.06,West,265,8.0,13.0,74,0.00,,,0.00,,2013-01-12 04:12:00,
2013-01-11 21:22:00,2.0,-4.0,30.08,WNW,283,11.0,16.0,74,0.00,,,0.00,,2013-01-12 04:22:00,
2013-01-11 21:32:00,2.0,-5.0,30.08,West,273,14.0,20.0,73,0.00,,,0.00,,2013-01-12 04:32:00,
2013-01-11 21:42:00,2.0,-5.0,30.08,West,273,14.0,20.0,73,0.00,,,0.00,,2013-01-12 04:42:00,
2013-01-11 21:52:00,2.0,-5.0,30.08,WNW,289,13.0,20.0,73,0.00,,,0.00,,2013-01-12 04:52:00,
2013-01-11 22:03:00,2.0,-5.0,30.08,WNW,292,14.0,20.0,73,0.22,,,0.22,,2013-01-12 05:03:00,
2013-01-11 22:12:00,2.0,-5.0,30.08,WNW,292,14.0,20.0,73,0.22,,,0.22,,2013-01-12 05:12:00,
2013-01-11 22:22:00,1.0,-6.0,30.09,WNW,300,14.0,20.0,73,0.22,,,0.22,,2013-01-12 05:22:00,
2013-01-11 22:32:00,1.0,-6.0,30.09,WNW,291,18.0,22.0,73,0.22,,,0.22,,2013-01-12 05:32:00,
2013-01-11 22:42:00,1.0,-6.0,30.09,WNW,291,18.0,22.0,73,0.22,,,0.22,,2013-01-12 05:42:00,
2013-01-11 22:52:00,1.0,-6.0,30.09,WNW,295,16.0,24.0,72,0.22,,,0.22,,2013-01-12 05:52:00,
2013-01-11 23:02:00,1.0,-6.0,30.09,WNW,291,15.0,21.0,72,0.00,,,0.22,,2013-01-12 06:02:00,
2013-01-11 23:12:00,1.0,-6.0,30.09,WNW,291,15.0,21.0,72,0.00,,,0.22,,2013-01-12 06:12:00,
2013-01-11 23:22:00,1.0,-6.0,30.10,WNW,299,17.0,21.0,72,0.00,,,0.22,,2013-01-12 06:22:00,
2013-01-11 23:32:00,1.0,-6.0,30.09,WNW,291,14.0,20.0,72,0.00,,,0.22,,2013-01-12 06:32:00,
2013-01-11 23:42:00,1.0,-6.0,30.09,WNW,291,14.0,20.0,72,0.00,,,0.22,,2013-01-12 06:42:00,
2013-01-11 23:53:00,1.0,-6.0,30.10,West,281,10.0,18.0,72,0.00,,,0.22,,2013-01-12 06:53:00,